Ellsworth, ME

9:05 PM EDT on August 26, 2016 (GMT -0400)
Hancock County-Bar Harbor

Weather History for KBHB - January, 2014

Change the Weather History Date:

Friday, January 10, 2014

  Actual Average Record
Temperature  
Mean Temperature 16 °F -  
Max Temperature 28 °F 25 °F 51 °F (2016)
Min Temperature 3 °F 10 °F -9 °F (1960)
Degree Days  
Heating Degree Days 50    
Moisture  
Dew Point 16 °F    
Average Humidity 93    
Maximum Humidity 100    
Minimum Humidity 80    
Precipitation  
Precipitation 0.00 in - - ()
Sea Level Pressure  
Sea Level Pressure 30.43 in    
Wind  
Wind Speed 1 mph (WNW)    
Max Wind Speed 9 mph    
Max Gust Speed -    
Visibility 9 miles    
Events      
Averages and records for this station are not official NWS values.
T = Trace of Precipitation, MM = Missing Value Source: NWS Daily Summary

Daily Weather History Graph

Daily Weather History Graph

Search for Another Location

Airport or City:

Trip Planner

Search our weather history database for the weather conditions in past years. The results will help you decide how hot, cold, wet, or windy it might be!

Date:

Astronomy

Jan. 10, 2014 Rise Set
Actual Time 7:08 AM EST 4:13 PM EST
Civil Twilight 6:35 AM EST 4:46 PM EST
Nautical Twilight 5:59 AM EST 5:22 PM EST
Astronomical Twilight 5:24 AM EST 5:57 PM EST
Moon 12:18 PM EST (1/10) 2:08 AM EST (1/10)
Length of Visible Light 10h 10m
Length of Day
9h 05m
Waxing Gibbous, 75% of the Moon is Illuminated
Jan 10
Waxing Gibbous
Jan 15
Full
Jan 24
Last Quarter
Jan 30
New
Feb 6
First Quarter

Hourly Weather History & Observations

Time (EST) Temp. Windchill Dew Point Humidity Pressure Visibility Wind Dir Wind Speed Gust Speed Precip Events Conditions
12:15 AM 6.8 °F - 5.0 °F 92% 30.59 in 10.0 mi Calm Calm - N/A   Clear
12:35 AM 6.8 °F - 5.0 °F 92% 30.58 in 10.0 mi Calm Calm - N/A   Clear
12:55 AM 6.8 °F - 3.2 °F 85% 30.58 in 10.0 mi Calm Calm - N/A   Clear
1:15 AM 6.8 °F - 3.2 °F 85% 30.57 in 10.0 mi Calm Calm - N/A   Clear
1:35 AM 5.0 °F - 3.2 °F 92% 30.58 in 10.0 mi Calm Calm - N/A   Clear
1:55 AM 3.2 °F - 3.2 °F 100% 30.58 in 10.0 mi Calm Calm - N/A   Clear
2:15 AM 3.2 °F - 1.4 °F 92% 30.58 in 10.0 mi Calm Calm - N/A   Clear
2:35 AM 3.2 °F - 3.2 °F 100% 30.58 in 10.0 mi Calm Calm - N/A   Clear
2:55 AM 3.2 °F - 1.4 °F 92% 30.58 in 8.0 mi Calm Calm - N/A   Clear
3:15 AM 3.2 °F - 1.4 °F 92% 30.57 in 10.0 mi Calm Calm - N/A   Clear
3:35 AM 3.2 °F - 1.4 °F 92% 30.57 in 10.0 mi Calm Calm - N/A   Clear
3:55 AM 3.2 °F - 1.4 °F 92% 30.56 in 10.0 mi Calm Calm - N/A   Clear
4:15 AM 3.2 °F - 1.4 °F 92% 30.55 in 10.0 mi Calm Calm - N/A   Clear
4:35 AM 3.2 °F -4.2 °F 1.4 °F 92% 30.53 in 10.0 mi NNW 3.5 mph - N/A   Clear
4:55 AM 3.2 °F -4.2 °F 1.4 °F 92% 30.52 in 10.0 mi NNW 3.5 mph - N/A   Clear
5:15 AM 3.2 °F -4.2 °F 1.4 °F 92% 30.52 in 10.0 mi NNW 3.5 mph - N/A   Clear
5:35 AM 3.2 °F -4.2 °F 1.4 °F 92% 30.52 in 10.0 mi NNW 3.5 mph - N/A   Clear
5:55 AM 3.2 °F - 3.2 °F 100% 30.52 in 10.0 mi Calm Calm - N/A   Clear
6:15 AM 3.2 °F -4.2 °F 3.2 °F 100% 30.52 in 10.0 mi NNW 3.5 mph - N/A   Clear
6:35 AM 3.2 °F - 3.2 °F 100% 30.51 in 10.0 mi Calm Calm - N/A   Clear
6:55 AM 3.2 °F -4.2 °F 3.2 °F 100% 30.51 in 10.0 mi NNW 3.5 mph - N/A   Clear
7:15 AM 3.2 °F - 1.4 °F 92% 30.51 in 10.0 mi Calm Calm - N/A   Clear
7:35 AM 3.2 °F -4.2 °F 3.2 °F 100% 30.50 in 10.0 mi NW 3.5 mph - N/A   Clear
7:55 AM 5.0 °F - 3.2 °F 92% 30.50 in 10.0 mi Calm Calm - N/A   Clear
8:15 AM 6.8 °F - 5.0 °F 92% 30.50 in 10.0 mi Calm Calm - N/A   Clear
8:35 AM 8.6 °F - 6.8 °F 92% 30.49 in 10.0 mi Calm Calm - N/A   Clear
8:55 AM 10.4 °F - 8.6 °F 92% 30.48 in 10.0 mi Calm Calm - N/A   Clear
9:15 AM 12.2 °F - 8.6 °F 85% 30.48 in 10.0 mi Calm Calm - N/A   Clear
9:35 AM 12.2 °F 6.1 °F 8.6 °F 85% 30.47 in 10.0 mi North 3.5 mph - N/A   Mostly Cloudy
9:55 AM 14.0 °F 8.2 °F 10.4 °F 86% 30.47 in 10.0 mi North 3.5 mph - N/A   Overcast
10:15 AM 15.8 °F - 12.2 °F 86% 30.46 in 10.0 mi Calm Calm - N/A   Overcast
10:35 AM 19.4 °F - 15.8 °F 86% 30.45 in 10.0 mi Calm Calm - N/A   Overcast
10:55 AM 19.4 °F - 15.8 °F 86% 30.43 in 10.0 mi Calm Calm - N/A   Mostly Cloudy
11:15 AM 21.2 °F - 17.6 °F 86% 30.41 in 10.0 mi Calm Calm - N/A   Overcast
11:35 AM 23.0 °F - 19.4 °F 86% 30.40 in 10.0 mi Calm Calm - N/A   Overcast
11:55 AM 24.8 °F - 19.4 °F 80% 30.39 in 10.0 mi Calm Calm - N/A   Overcast
12:15 PM 26.6 °F 22.6 °F 21.2 °F 80% 30.39 in 10.0 mi SSW 3.5 mph - N/A   Overcast
12:35 PM 28.4 °F 22.2 °F 24.8 °F 86% 30.38 in 10.0 mi SW 5.8 mph - N/A   Overcast
12:55 PM 28.4 °F 22.2 °F 24.8 °F 86% 30.38 in 10.0 mi SW 5.8 mph - N/A   Overcast
1:15 PM 28.4 °F 19.7 °F 26.6 °F 93% 30.38 in 1.8 mi SW 9.2 mph - N/A   Overcast
1:35 PM 28.4 °F 23.3 °F 26.6 °F 93% 30.38 in 1.8 mi SW 4.6 mph - N/A   Overcast
1:55 PM 28.4 °F 24.6 °F 28.4 °F 100% 30.37 in 2.5 mi WSW 3.5 mph - N/A   Overcast
2:15 PM 28.4 °F - 28.4 °F 100% 30.37 in 2.0 mi Calm Calm - N/A   Overcast
2:35 PM 28.4 °F 24.6 °F 26.6 °F 93% 30.36 in 3.0 mi SW 3.5 mph - N/A   Overcast
2:55 PM 28.4 °F - 26.6 °F 93% 30.36 in 9.0 mi Calm Calm - N/A   Overcast
3:15 PM 28.4 °F - 28.4 °F 100% 30.35 in 10.0 mi Calm Calm - N/A   Overcast
3:35 PM 28.4 °F 24.6 °F 28.4 °F 100% 30.35 in 5.0 mi SSW 3.5 mph - N/A   Overcast
3:55 PM 28.4 °F - 26.6 °F 93% 30.35 in 10.0 mi Calm Calm - N/A   Overcast
4:15 PM 28.4 °F - 26.6 °F 93% 30.34 in 10.0 mi Calm Calm - N/A   Overcast
4:35 PM 28.4 °F - 26.6 °F 93% 30.35 in 10.0 mi Calm Calm - N/A   Overcast
4:55 PM 28.4 °F - 28.4 °F 100% 30.35 in 10.0 mi Calm Calm - N/A   Overcast
5:15 PM 28.4 °F - 28.4 °F 100% 30.35 in 10.0 mi Calm Calm - N/A   Overcast
5:35 PM 28.4 °F - 28.4 °F 100% 30.35 in 10.0 mi Calm Calm - N/A   Overcast
5:55 PM 28.4 °F - 28.4 °F 100% 30.35 in 10.0 mi Calm Calm - N/A   Overcast
6:15 PM 28.4 °F - 26.6 °F 93% 30.35 in 10.0 mi Calm Calm - N/A   Overcast
6:35 PM 28.4 °F - 26.6 °F 93% 30.34 in 10.0 mi Calm Calm - N/A   Overcast
6:55 PM 28.4 °F - 26.6 °F 93% 30.33 in 10.0 mi Calm Calm - N/A   Overcast
7:15 PM 28.4 °F - 26.6 °F 93% 30.34 in 10.0 mi Calm Calm - N/A   Overcast
7:35 PM 28.4 °F 24.6 °F 26.6 °F 93% 30.33 in 10.0 mi NNW 3.5 mph - N/A   Overcast
7:55 PM 28.4 °F - 26.6 °F 93% 30.33 in 10.0 mi Calm Calm - N/A   Overcast
8:15 PM 26.6 °F - 26.6 °F 100% 30.33 in 10.0 mi Calm Calm - N/A   Overcast
8:35 PM 26.6 °F - 24.8 °F 93% 30.33 in 10.0 mi Calm Calm - N/A   Overcast
8:55 PM 26.6 °F - 26.6 °F 100% 30.32 in 10.0 mi Calm Calm - N/A   Overcast
9:15 PM 26.6 °F - 26.6 °F 100% 30.33 in 10.0 mi Calm Calm - N/A   Overcast
9:35 PM 26.6 °F - 24.8 °F 93% 30.32 in 10.0 mi Calm Calm - N/A   Overcast
9:55 PM 26.6 °F - 24.8 °F 93% 30.33 in 10.0 mi Calm Calm - N/A   Overcast
10:15 PM 24.8 °F - 23.0 °F 93% 30.31 in 10.0 mi Calm Calm - N/A   Scattered Clouds
10:35 PM 24.8 °F - 21.2 °F 86% 30.30 in 10.0 mi Calm Calm - N/A   Clear
10:55 PM 23.0 °F - 21.2 °F 93% 30.30 in 10.0 mi Calm Calm - N/A   Clear
11:15 PM 23.0 °F - 21.2 °F 93% 30.29 in 8.0 mi Calm Calm - N/A   Mostly Cloudy
11:35 PM 23.0 °F - 21.2 °F 93% 30.29 in 10.0 mi Calm Calm - N/A   Overcast
11:55 PM 23.0 °F - 21.2 °F 93% 30.30 in 10.0 mi Calm Calm - N/A   Overcast